Tracking 19969 objects as of 12-Nov-2019
Live streaming from Space Station
objects crossing your sky now
Track the group of recently launched Starlink satellites

FENGYUN 1C DEB

Track FENGYUN 1C DEB now!
10-day predictions


NORAD ID: 30483
Int'l Code: 1999-025AGV
Perigee: 509.7 km
Apogee: 643.8 km
Inclination: 99.0 °
Period: 96.1 minutes
Semi major axis: 6947 km
RCS: 0.0087 m2 (small)
Launch date: May 10, 1999
Source: People's Republic of China (PRC)
Launch site: Taiyaun Space Center, China (TSC)

Note: This is SATELLITE DEBRIS
aabbcc
Your satellite tracking list
Your tracking list is empty




NASA's NSSDC Master Catalog

Two Line Element Set (TLE):
1 30483U 99025AGV 19315.52729092  .00002790  00000-0  21487-3 0  9991
2 30483  98.9575  56.3273 0096492 320.6167  38.8063 14.99113289682678
Source of the keplerian elements: AFSPC